Temp
82 81 81 82 82 82 82 82 83 83 82 83 83 84 84 84 84 83 83 84 83 83 84 83 83 83 86 87 86 85 84 82 81 87 87 87 83 84 87 86 86 86 87
83 82 82 82 82 82 82 83 83 82 82 83 83 83 84 85 84 83 83 86 84 83 84 84 83 86 82 83 86 82 84 83 82 78 84 86 83 85 85 84 86 91 89
84 83 82 82 82 81 82 82 83 82 82 83 83 82 83 84 84 84 84 84 85 85 85 85 85 85 83 85 84 85 86 84 82 81 82 87 86 86 84 83 82 84 88
86 85 82 81 82 83 82 82 82 82 82 82 82 83 84 85 85 85 85 84 84 86 86 86 86 85 84 84 84 83 83 83 84 82 83 85 86 86 84 82 84 88 85
84 83 82 82 82 82 82 82 82 82 82 83 82 83 84 85 88 84 85 85 84 84 85 85 86 83 77 79 86 85 83 83 84 84 84 84 85 86 83 87 85 87 86
82 82 82 82 82 81 81 81 81 81 81 82 81 82 83 86 76 71 79 86 85 84 84 85 85 78 77 70 70 71 79 83 80 83 85 83 82 83 86 84 84 83 81
82 82 82 81 80 80 81 81 80 81 81 81 81 82 82 83 69 68 70 84 86 85 84 85 86 90 80 84 73 68 68 68 70 81 80 82 82 83 83 80 81 81 81
81 81 82 81 80 81 80 79 80 81 81 81 81 82 82 83 67 65 68 81 83 84 85 85 84 85 86 84 84 84 85 86 82 81 81 81 83 84 83 82 78 75 75
81 81 81 81 81 81 79 80 81 80 80 80 81 81 81 82 64 64 67 82 83 82 84 85 85 84 76 67 81 82 83 85 79 68 69 68 66 66 70 76 73 70 70
82 82 82 82 81 80 80 80 81 81 82 84 82 82 76 81 66 61 66 83 82 84 84 83 70 79 68 63 79 81 81 83 85 85 85 76 70 76 65 72 72 70 70
84 84 82 82 81 81 81 81 81 81 82 81 82 83 82 80 80 60 59 81 84 85 85 87 87 64 61 59 62 82 80 82 81 83 82 82 82 81 82 77 73 72 70
83 83 82 81 83 84 81 81 81 80 80 80 80 82 85 83 67 63 58 61 73 83 84 88 86 62 58 57 62 66 62 65 83 79 76 76 77 77 77 75 75 73 73
82 81 81 82 82 84 81 80 81 81 82 81 83 83 85 88 86 62 58 57 60 76 86 80 67 59 57 61 58 60 60 73 72 72 73 76 77 77 78 76 75 76 77
80 81 81 81 80 83 84 84 84 84 84 84 84 84 86 87 87 88 80 71 61 66 68 77 74 68 64 68 68 66 68 72 72 73 73 75 77 75 73 73 76 78 73
81 82 81 82 80 83 84 85 85 86 82 86 87 87 86 86 87 76 78 86 85 77 74 76 75 73 72 72 72 74 74 72 70 70 72 72 71 72 72 71 76 70 72
76 80 75 78 82 84 84 81 52 54 50 50 51 69 87 67 58 55 53 53 54 54 70 74 73 74 74 74 73 73 73 70 72 72 73 72 71 70 70 70 74 73 75
72 72 70 71 77 73 78 80 80 64 48 47 48 48 49 56 50 49 50 48 49 54 73 73 74 75 74 73 74 73 72 74 77 74 72 72 71 74 70 76 72 73 73
70 58 77 78 79 81 76 75 77 77 78 81 54 53 47 45 46 46 46 52 64 59 71 74 75 75 76 74 73 73 73 73 73 73 72 74 72 70 68 70 70 68 72
72 75 75 79 81 77 82 82 80 76 76 81 72 57 51 43 44 44 45 74 78 79 78 75 75 78 76 73 74 72 73 72 73 71 70 72 70 69 69 70 71 60 64
72 62 63 74 79 82 83 82 83 82 82 82 82 81 69 59 68 68 64 69 77 80 82 80 76 72 71 71 70 70 72 71 74 73 69 78 76 77 74 72 70 73 68
68 72 65 74 78 81 83 83 84 82 83 84 83 79 56 76 79 77 71 73 78 82 79 78 71 70 68 67 68 69 73 76 70 70 73 75 75 71 72 69 69 72 72
63 68 73 75 78 78 79 81 82 82 81 83 84 79 48 67 81 81 79 78 79 79 80 71 71 77 77 76 75 72 74 77 73 72 73 70 71 68 68 67 68 70 75
62 65 71 73 75 70 75 79 81 81 76 77 79 80 69 73 79 80 80 79 78 75 77 79 78 77 77 77 78 77 77 78 77 74 72 70 68 68 68 67 69 70 73
62 64 69 73 74 76 78 79 77 61 72 73 71 69 67 67 66 64 67 68 68 66 69 72 70 70 66 67 68 69 69 72 75 74 73 68 68 64 67 69 74 72 72
54 53 54 55 57 60 62 62 61 61 60 59 57 57 55 54 52 51 51 52 54 55 57 59 61 61 59 59 56 56 45 36 50 50 70 71 70 67 67 69 73 75 73
48 48 47 46 46 47 48 48 47 48 48 48 48 48 48 48 48 47 47 47 48 48 49 50 50 51 52 48 44 37 33 34 46 37 65 67 68 68 69 69 71 70 71
MSLP
1010.72 1011.60 1012.46 1013.20 1013.73 1014.41 1014.92 1015.34 1015.72 1016.24 1016.80 1017.20 1017.55 1017.75 1017.98 1018.21 1018.52 1018.94 1019.15 1019.31 1019.63 1019.73 1019.90 1020.19 1020.29 1020.48 1020.51 1020.65 1020.86 1020.91 1020.91 1020.92 1020.26 1019.55 1019.85 1019.70 1019.80 1019.46 1019.23 1019.43 1019.51 1019.39 1019.12
1009.43 1010.59 1011.38 1012.25 1012.99 1013.61 1014.04 1014.57 1015.09 1015.53 1016.04 1016.54 1017.06 1017.34 1017.55 1017.75 1018.06 1018.44 1018.62 1018.64 1018.95 1019.05 1019.20 1019.53 1019.65 1019.91 1020.13 1020.18 1020.19 1020.29 1020.23 1020.29 1020.25 1019.37 1019.12 1019.15 1019.09 1018.99 1018.73 1018.71 1018.53 1018.30 1018.29
1008.24 1009.43 1010.43 1011.19 1012.12 1012.56 1013.04 1013.72 1014.40 1014.86 1015.19 1015.74 1016.32 1016.68 1016.95 1017.19 1017.53 1017.88 1018.07 1018.13 1018.26 1018.40 1018.53 1018.73 1018.81 1019.09 1019.39 1019.41 1019.58 1019.55 1019.55 1019.77 1019.72 1019.35 1018.55 1018.53 1018.35 1018.45 1018.30 1018.23 1018.03 1017.77 1017.41
1007.09 1008.17 1009.19 1010.04 1010.88 1011.49 1012.08 1012.87 1013.61 1014.09 1014.46 1014.83 1015.38 1015.84 1016.19 1016.59 1016.94 1017.21 1017.39 1017.50 1017.57 1017.71 1017.86 1018.06 1018.18 1018.37 1018.52 1018.71 1018.93 1019.02 1019.12 1019.03 1018.83 1018.71 1018.14 1017.69 1017.61 1017.58 1017.80 1017.48 1017.03 1016.81 1016.31
1006.24 1007.14 1008.00 1009.00 1009.83 1010.60 1011.43 1012.01 1012.71 1013.34 1013.65 1014.05 1014.53 1015.03 1015.45 1015.87 1016.10 1016.48 1016.67 1016.87 1016.98 1017.06 1017.16 1017.32 1017.42 1017.53 1017.70 1017.95 1018.13 1018.10 1018.37 1018.35 1018.04 1017.75 1017.29 1017.05 1016.71 1016.65 1016.53 1016.28 1016.13 1015.78 1015.21
1005.25 1006.03 1007.05 1008.11 1009.06 1009.66 1010.38 1011.17 1011.87 1012.35 1012.89 1013.40 1013.81 1014.19 1014.59 1014.90 1015.05 1015.52 1015.97 1016.07 1016.21 1016.35 1016.39 1016.50 1016.62 1016.84 1017.09 1017.29 1017.49 1017.61 1017.67 1017.45 1017.39 1017.03 1016.43 1016.03 1015.95 1016.12 1015.90 1015.86 1015.58 1015.37 1014.02
1004.44 1005.41 1006.26 1007.24 1008.09 1008.77 1009.44 1010.29 1010.80 1011.27 1011.98 1012.53 1013.05 1013.43 1013.59 1013.97 1014.29 1014.75 1015.21 1015.50 1015.42 1015.46 1015.58 1015.69 1015.75 1015.73 1016.07 1016.35 1016.40 1016.62 1016.69 1016.61 1016.66 1016.29 1015.65 1015.51 1015.25 1015.47 1015.45 1015.11 1014.95 1014.87 1013.97
1003.76 1004.57 1005.37 1006.24 1007.03 1007.89 1008.71 1009.37 1009.93 1010.57 1011.03 1011.59 1012.08 1012.43 1012.83 1013.00 1013.51 1014.09 1014.55 1014.97 1014.83 1014.61 1014.63 1014.78 1014.92 1014.95 1015.16 1015.42 1015.57 1015.49 1015.19 1015.03 1015.13 1015.43 1015.05 1014.75 1014.83 1014.95 1014.85 1014.36 1014.26 1014.35 1014.17
1002.85 1003.59 1004.32 1005.25 1006.21 1007.07 1007.82 1008.46 1009.05 1009.73 1010.33 1010.66 1011.08 1011.52 1011.80 1011.98 1012.48 1013.16 1013.91 1014.03 1013.75 1013.57 1013.65 1013.78 1013.93 1014.09 1014.30 1014.75 1015.00 1014.63 1014.11 1013.76 1013.67 1014.05 1014.11 1014.20 1014.36 1014.49 1014.59 1014.57 1014.35 1014.31 1013.62
1001.64 1002.53 1003.60 1004.59 1005.51 1006.17 1006.84 1007.37 1007.92 1008.56 1009.00 1009.50 1009.89 1010.29 1010.61 1010.81 1011.41 1012.06 1012.86 1012.94 1012.59 1012.48 1012.55 1012.62 1012.89 1013.17 1013.53 1013.88 1014.12 1013.95 1013.16 1012.90 1013.10 1013.04 1013.28 1013.60 1013.51 1013.27 1013.67 1013.90 1013.67 1013.77 1013.42
1001.36 1002.29 1003.11 1003.85 1004.54 1005.09 1005.78 1006.42 1007.01 1007.60 1008.08 1008.61 1008.87 1009.16 1009.63 1009.98 1010.27 1010.90 1011.61 1011.86 1011.37 1011.25 1011.13 1011.15 1011.56 1012.03 1012.61 1012.99 1013.12 1013.00 1012.48 1012.68 1012.59 1012.64 1012.67 1012.65 1012.49 1012.45 1012.28 1012.43 1012.94 1013.05 1012.84
1001.07 1001.78 1002.51 1003.19 1003.91 1004.54 1005.17 1005.75 1006.38 1006.95 1007.50 1007.79 1008.11 1008.30 1008.41 1008.92 1009.41 1009.75 1010.26 1010.71 1010.49 1010.45 1010.21 1010.21 1010.59 1011.16 1011.59 1011.95 1012.36 1012.37 1012.33 1012.39 1012.27 1012.12 1012.23 1012.25 1012.18 1011.99 1012.00 1012.05 1012.05 1012.25 1012.31
1000.74 1001.23 1001.85 1002.59 1003.21 1003.63 1004.38 1005.03 1005.70 1006.26 1006.52 1006.85 1007.03 1007.19 1007.30 1007.55 1008.13 1008.69 1009.16 1009.63 1009.88 1010.10 1009.75 1009.69 1010.08 1010.46 1010.86 1011.20 1011.40 1011.58 1011.71 1012.05 1011.97 1011.79 1011.66 1011.51 1011.49 1011.59 1011.65 1011.74 1011.72 1011.65 1011.54
1000.62 1001.07 1001.59 1002.16 1002.67 1003.16 1003.75 1004.23 1004.60 1004.91 1005.41 1005.69 1005.92 1006.11 1006.30 1006.52 1006.94 1007.35 1008.20 1009.02 1009.53 1009.85 1009.77 1009.58 1009.77 1010.05 1010.39 1010.52 1010.75 1010.89 1011.17 1011.11 1011.03 1010.93 1010.93 1010.95 1011.04 1011.27 1011.45 1011.57 1011.33 1011.15 1011.53
1000.93 1001.31 1001.94 1002.39 1002.85 1003.06 1003.37 1003.69 1003.92 1003.90 1004.27 1004.75 1004.99 1005.13 1005.34 1005.43 1005.87 1006.45 1006.81 1007.17 1007.57 1007.96 1008.58 1008.86 1009.06 1009.43 1009.63 1009.77 1009.76 1009.68 1009.68 1009.90 1010.19 1010.30 1010.43 1010.53 1010.73 1010.98 1011.07 1011.33 1011.17 1011.43 1011.27
1001.78 1001.68 1002.13 1002.24 1002.63 1002.58 1002.96 1003.93 1004.88 1004.71 1004.67 1004.81 1004.97 1004.95 1004.64 1005.19 1005.70 1006.16 1006.53 1006.79 1007.03 1007.52 1008.29 1008.08 1008.12 1008.30 1008.39 1008.47 1008.51 1008.59 1008.74 1008.92 1009.13 1009.37 1009.66 1009.92 1010.25 1010.58 1010.82 1010.94 1010.83 1010.87 1010.67
1002.82 1002.78 1002.67 1001.15 1002.92 1003.25 1001.96 1003.43 1003.78 1005.25 1005.02 1004.96 1005.24 1005.45 1005.65 1005.50 1006.04 1006.02 1006.14 1006.65 1007.34 1007.81 1007.56 1007.39 1007.43 1007.47 1007.47 1007.48 1007.57 1007.79 1007.96 1008.11 1008.38 1008.61 1009.01 1009.40 1009.83 1010.05 1010.44 1010.16 1010.57 1010.53 1010.59
1003.28 1002.91 1001.84 1000.43 1003.07 1003.18 1002.25 1003.80 1003.33 1004.17 1004.15 1003.96 1004.80 1005.00 1005.37 1005.79 1005.95 1006.25 1006.61 1006.98 1007.47 1007.59 1006.97 1006.71 1006.68 1006.71 1006.77 1006.87 1006.94 1007.20 1007.45 1007.66 1008.05 1008.29 1008.65 1008.97 1009.35 1009.64 1010.01 1010.10 1010.25 1010.40 1010.19
1004.09 1003.59 1003.45 1003.83 1003.59 1003.07 1002.70 1002.61 1003.24 1003.57 1003.46 1003.31 1004.30 1004.99 1005.21 1005.49 1005.56 1005.85 1006.13 1006.01 1005.75 1005.69 1005.76 1005.88 1005.90 1006.06 1006.29 1006.48 1006.59 1006.87 1007.07 1007.47 1007.75 1008.02 1008.34 1008.55 1008.87 1009.15 1009.39 1009.63 1009.77 1010.03 1010.14
1004.51 1004.81 1004.59 1004.12 1003.47 1002.65 1002.41 1002.42 1002.05 1002.00 1002.01 1002.13 1002.68 1003.41 1004.51 1005.25 1005.26 1005.27 1005.42 1005.21 1004.90 1004.72 1004.59 1005.00 1005.43 1005.73 1006.03 1006.22 1006.47 1006.73 1006.84 1007.23 1007.39 1007.62 1007.93 1007.72 1008.01 1008.24 1008.65 1009.13 1009.49 1009.36 1009.81
1004.28 1003.60 1003.52 1003.18 1002.75 1002.31 1001.84 1001.65 1001.45 1001.45 1001.55 1001.74 1001.98 1002.87 1003.85 1004.05 1003.89 1004.09 1004.26 1004.13 1003.85 1003.70 1003.96 1004.36 1004.96 1005.34 1005.76 1006.00 1006.14 1006.29 1006.36 1006.49 1007.15 1007.42 1007.42 1007.45 1007.68 1008.07 1008.49 1008.99 1009.23 1009.16 1009.30
1004.79 1004.21 1003.57 1003.06 1002.47 1002.19 1002.05 1001.89 1001.71 1001.65 1001.61 1001.59 1001.82 1002.55 1003.66 1004.24 1003.53 1003.37 1003.41 1003.37 1003.45 1003.67 1003.48 1003.85 1004.34 1004.55 1004.89 1005.29 1005.59 1005.85 1005.78 1005.82 1006.45 1006.85 1006.84 1007.27 1007.52 1007.95 1008.28 1008.64 1008.77 1008.76 1008.43
1005.16 1004.48 1003.72 1003.23 1002.96 1002.67 1002.55 1002.39 1002.10 1001.91 1002.09 1002.06 1002.31 1002.35 1003.38 1003.70 1003.65 1003.64 1003.58 1003.49 1003.91 1004.34 1004.37 1004.28 1004.38 1004.51 1004.78 1004.86 1005.09 1005.28 1005.27 1005.27 1005.57 1006.27 1006.50 1006.87 1007.26 1007.59 1007.86 1008.12 1008.11 1008.11 1007.86
1005.55 1004.82 1004.07 1003.57 1003.28 1002.83 1002.48 1002.41 1002.43 1003.29 1002.99 1002.91 1002.99 1003.21 1003.71 1003.95 1004.23 1004.85 1005.01 1005.35 1005.63 1005.90 1005.84 1005.77 1005.91 1005.91 1006.08 1006.11 1005.93 1005.88 1006.05 1006.04 1005.82 1005.94 1006.10 1006.62 1006.92 1007.36 1007.47 1007.55 1007.23 1007.41 1007.44
1006.66 1006.16 1005.65 1005.36 1005.03 1004.62 1004.58 1004.53 1004.51 1004.53 1004.70 1004.61 1004.59 1004.77 1004.94 1005.24 1005.77 1006.15 1006.59 1006.96 1007.01 1007.04 1007.25 1007.39 1007.50 1007.44 1007.47 1007.39 1007.13 1006.97 1007.03 1006.89 1006.77 1006.58 1006.22 1006.31 1006.48 1006.96 1007.09 1007.08 1006.87 1006.69 1006.90
1007.55 1007.31 1007.13 1006.65 1006.87 1006.82 1006.68 1006.76 1006.61 1006.29 1006.30 1006.31 1006.31 1006.29 1006.41 1006.67 1006.94 1007.19 1007.43 1007.68 1008.02 1008.00 1008.62 1008.86 1008.86 1008.87 1008.31 1008.69 1008.75 1008.46 1007.99 1007.23 1006.72 1006.63 1006.14 1006.16 1006.19 1006.23 1006.32 1006.33 1006.33 1006.39 1006.37
Wind_Speed
20 19 18 16 17 15 14 14 13 12 11 12 11 11 11 11 10 10 10 10 10 10 9 8 9 8 7 6 6 6 6 6 9 9 5 6 7 8 6 7 8 10 10
20 18 18 17 16 17 16 16 15 14 13 13 12 12 11 11 10 11 11 11 12 12 12 10 11 7 10 9 8 9 8 7 8 11 9 9 9 9 9 9 8 9 10
20 20 19 18 17 17 17 15 15 14 14 14 13 13 13 12 11 11 12 12 12 12 12 12 12 11 11 9 9 9 8 8 8 9 12 10 9 9 9 10 10 11 11
21 21 19 19 19 18 16 15 16 15 14 14 14 14 13 13 13 13 13 13 13 12 12 12 13 13 13 13 11 11 9 10 10 11 12 12 11 9 8 11 10 10 11
20 20 20 19 18 17 15 16 16 15 14 14 14 15 15 14 12 15 15 14 13 13 13 13 13 14 13 13 10 10 10 10 10 11 11 11 11 10 12 10 11 11 12
20 20 19 18 17 17 16 16 15 16 15 14 15 15 15 13 15 15 14 14 14 14 13 14 14 12 14 15 16 17 15 12 13 12 13 14 12 11 11 11 12 12 15
20 19 18 18 18 17 16 16 16 17 15 15 16 16 16 16 14 16 17 15 14 14 14 14 14 13 13 15 15 18 18 18 19 16 17 15 15 13 13 15 14 13 14
20 19 18 19 18 16 16 17 16 15 15 14 15 16 15 14 13 16 16 17 15 17 16 16 16 16 15 15 16 16 17 16 15 14 17 17 16 14 15 14 13 10 9
20 20 19 18 17 17 17 16 14 14 14 14 15 16 16 16 16 17 15 17 17 18 16 17 17 16 15 13 16 17 18 16 13 17 18 18 14 11 11 9 10 9 9
21 20 17 17 17 17 16 17 15 15 15 14 16 16 17 17 14 18 18 13 15 14 15 16 17 19 12 14 17 16 18 16 15 15 13 12 16 13 16 13 8 8 8
17 17 17 17 18 17 16 14 14 14 13 14 15 14 16 16 16 18 20 15 14 13 14 13 13 17 19 16 18 16 17 13 14 12 10 9 10 10 9 4 8 8 6
15 16 16 16 14 14 15 13 14 13 13 13 13 13 12 14 16 15 20 23 16 14 14 11 11 12 16 17 15 18 16 14 14 9 7 7 8 7 6 5 5 6 7
15 15 15 14 14 13 14 14 12 13 12 12 11 11 10 10 12 19 17 20 23 15 13 12 10 12 15 14 16 15 13 9 8 9 9 10 7 5 4 3 4 7 8
12 13 12 14 14 13 12 12 12 12 12 12 11 11 11 10 10 10 10 10 15 11 15 12 9 7 9 9 7 7 8 9 9 9 8 6 4 4 4 3 5 5 4
7 8 8 9 11 11 11 9 11 11 10 11 11 10 10 10 10 11 10 9 10 12 12 8 7 7 8 7 8 10 9 7 8 7 6 5 4 4 3 1 4 3 5
9 6 6 4 5 8 9 7 6 6 4 2 2 6 9 10 5 13 13 12 11 9 5 7 6 7 9 8 8 7 7 7 7 7 7 6 5 4 3 4 5 5 5
8 7 3 7 5 5 6 5 6 3 2 3 6 8 8 9 5 10 11 6 6 7 6 6 7 8 9 7 7 6 6 7 8 6 6 5 4 5 5 6 4 4 5
10 5 5 11 2 8 1 7 2 5 4 4 6 4 7 9 11 10 5 10 3 3 5 7 8 8 7 6 5 5 5 5 5 5 5 5 5 5 5 5 5 6 6
7 6 6 4 5 4 4 4 6 6 6 6 3 4 4 1 4 6 11 7 9 9 9 9 7 7 6 5 5 4 5 5 6 5 6 6 7 7 6 5 6 6 5
5 2 5 5 6 5 5 5 5 4 4 4 5 5 4 3 4 6 7 8 8 9 7 6 5 4 4 4 4 3 5 5 6 6 7 7 7 7 6 6 7 7 7
8 8 7 6 6 7 5 5 4 3 4 4 4 4 6 7 6 7 7 8 9 8 7 6 5 5 5 5 6 6 7 6 6 7 7 7 7 6 5 6 7 7 7
7 8 8 8 7 7 7 7 6 5 4 5 3 2 5 7 8 7 8 8 7 6 5 7 7 8 7 7 7 6 6 7 7 7 7 6 6 6 6 7 8 9 9
7 7 8 8 8 8 8 9 9 7 5 4 4 3 5 7 7 7 6 4 3 1 1 4 4 5 5 5 5 5 6 6 6 7 8 8 7 7 7 8 9 10 9
8 8 8 8 8 8 8 8 5 6 5 2 1 3 3 4 6 8 6 4 4 4 4 3 3 2 3 3 2 3 1 2 2 5 8 8 7 7 8 9 10 12 10
7 7 7 8 8 7 5 3 3 3 3 4 5 5 6 7 7 8 7 6 6 7 8 8 7 7 8 8 7 6 5 2 5 5 4 7 9 10 9 9 11 10 12
10 11 9 8 9 8 7 7 7 7 7 7 7 7 8 8 8 8 7 9 8 10 11 8 10 13 13 13 14 14 10 7 6 8 7 6 7 7 8 10 12 9 10
Wind_Direction
195 198 202 208 206 205 209 212 209 200 200 205 211 213 220 223 220 221 233 240 231 239 239 235 240 241 249 242 232 237 239 239 267 282 269 277 271 252 260 237 246 246 247
195 197 199 203 204 204 208 209 208 202 200 205 211 213 217 224 222 222 230 236 233 239 241 239 241 233 239 246 244 247 246 241 260 275 281 279 266 287 272 262 252 250 253
192 195 199 201 202 203 207 206 206 205 203 205 211 214 216 222 222 223 230 234 236 238 243 243 249 244 242 250 242 254 250 248 243 265 279 276 276 282 271 256 256 257 254
192 195 197 198 200 206 203 200 203 206 204 203 208 214 214 219 227 231 230 233 237 238 242 244 248 249 249 248 245 248 253 256 253 257 269 275 271 270 277 278 278 260 260
191 191 196 199 201 201 201 199 201 208 209 206 207 216 217 220 225 225 227 229 234 239 243 245 246 248 245 244 249 247 251 249 258 264 265 269 269 271 269 286 286 283 278
189 192 192 194 197 198 197 197 198 205 211 210 212 216 217 222 220 211 222 228 234 238 242 243 248 242 240 233 231 243 250 246 254 267 271 273 274 270 275 278 283 290 292
187 190 189 190 194 198 197 195 200 204 206 213 214 217 221 223 212 209 209 232 237 238 240 244 249 250 235 251 231 229 244 241 243 260 267 263 275 274 277 276 273 269 272
186 190 188 190 193 193 195 198 201 202 207 210 216 219 223 227 204 208 208 228 239 241 241 240 243 249 246 243 252 258 257 256 244 241 249 261 265 269 268 271 282 284 279
190 191 189 188 190 190 196 198 199 200 206 212 216 218 221 229 201 204 199 227 237 240 241 240 239 243 241 215 242 258 261 260 252 231 246 262 272 267 271 292 280 282 281
189 189 184 184 189 193 194 197 198 201 209 212 219 220 220 227 206 202 199 228 234 239 239 239 228 239 226 204 231 247 258 261 265 270 255 243 244 255 238 241 256 256 271
182 182 181 185 190 193 194 196 197 202 211 213 220 222 225 222 228 201 197 220 233 234 239 240 240 208 224 221 218 241 250 266 266 262 264 265 269 267 273 231 217 230 257
175 179 183 184 191 194 195 193 200 202 211 215 221 228 227 229 220 210 203 209 222 234 240 242 244 202 212 221 225 241 249 253 262 269 265 258 253 244 239 242 245 241 242
177 184 185 186 193 192 193 194 198 203 214 215 219 227 229 225 228 214 207 207 223 234 241 246 247 210 215 227 232 238 239 249 248 250 252 256 256 242 232 250 251 258 273
184 186 184 187 189 194 194 197 203 203 208 215 214 221 225 226 225 230 214 213 229 226 250 253 249 249 216 222 239 225 228 233 234 242 249 251 221 210 230 228 266 292 267
167 182 187 199 196 197 206 206 206 211 211 211 217 216 221 223 223 220 222 215 215 214 220 227 228 216 229 221 224 227 225 217 217 224 228 213 210 222 209 211 268 226 248
66 91 93 92 188 201 201 207 39 40 85 44 311 257 225 237 207 205 218 226 220 160 190 220 213 216 227 227 224 224 221 210 214 212 214 215 204 196 214 215 222 229 244
22 22 265 102 20 280 146 233 214 185 118 191 232 244 239 276 265 239 229 216 128 152 228 211 226 231 233 224 217 208 206 214 218 204 193 190 190 223 199 214 226 244 228
356 348 15 49 161 271 244 230 209 243 244 226 184 227 222 231 236 242 187 140 156 226 226 229 234 241 235 219 201 202 205 180 190 182 187 197 201 203 196 213 223 214 210
359 344 355 287 248 264 234 203 202 206 213 227 170 216 156 112 229 202 178 225 222 221 217 232 228 228 231 219 206 182 180 188 188 193 194 199 189 187 198 216 215 214 191
339 221 264 280 273 250 217 219 215 224 229 227 229 244 143 164 204 194 201 213 224 233 233 224 210 188 193 186 173 175 182 185 199 186 197 208 203 205 205 206 204 199 203
326 325 325 294 284 283 278 271 242 237 260 252 236 230 196 217 224 216 204 211 219 218 206 199 180 181 175 173 171 181 193 181 192 200 198 211 200 199 203 208 207 214 190
313 307 305 300 302 287 288 288 281 264 257 267 249 180 168 236 257 237 222 215 231 238 200 167 174 183 182 181 184 196 202 202 192 207 207 197 196 196 192 202 205 209 190
303 294 294 291 285 282 280 274 268 254 239 245 268 237 184 224 248 247 229 203 179 117 261 212 192 176 173 179 190 200 211 202 195 186 204 196 200 203 206 204 211 207 205
315 314 310 290 274 276 270 278 295 10 312 324 70 66 35 27 57 45 32 36 62 51 36 51 62 99 123 118 115 129 114 14 273 217 204 190 199 195 208 219 211 214 216
7 12 15 5 9 11 5 15 34 42 49 61 69 66 81 88 79 72 62 57 55 54 46 34 27 32 31 22 22 355 3 271 244 316 251 229 208 206 211 213 230 220 217
37 36 34 39 31 27 34 30 39 52 54 50 53 64 70 70 75 75 70 72 69 67 52 44 44 40 49 35 17 359 339 320 262 229 231 221 225 216 210 221 232 234 225